HOFU_(JASDF) current weather conditions

sailwx.info

Wind from 310 at 12 knots

Air temperature 4.0° C
Visibility: greater than 4.3 NM
Dewpoint -0.0° C
Present weather: Light rain showers.

Last reported at 2017-Jan-20 12:22 UTC.
Time now 2017-Jan-20 14:05 UTC

Location: N 34°02' E 131°33'.
View on Google Maps.

See reports from other nearby stations

  
Tides and Currents Weather Stations Pressure Air Temp Water Temp Dewpoint Dewpoint Depression Visibility Wind Speed Wind Dir Waves Ship Positions
date/time (UTC)wind fromknots sea level pressurealtimeterstation pressurevisibilityair tempwater tempwave heightnotes
2017-Jan-20 12:22 310 12 4.3 4.0 Light rain showers.
2017-Jan-20 10:40 270 13 2.2 2.0 Light thunderstorm with rain. Snow.
2017-Jan-20 10:05 280 14 gusting 34 2.2 3.0 Light rain showers.
2017-Jan-20 09:28 270 12 3.2 2.0 Light rain showers.
2017-Jan-20 08:40 300 18 gusting 34 2.2 4.0 Light rain showers.
2017-Jan-20 08:09 290 15 gusting 27 5.4 5.0 Light rain showers.
2017-Jan-20 07:35 280 9 5.4 4.0
2017-Jan-20 06:52 280 20 gusting 29 5.4 3.0
2017-Jan-20 06:39 280 13 gusting 27 5.4 4.0 Light rain showers.
2017-Jan-20 06:19 280 13 5.4 4.0
2017-Jan-20 05:48 250 18 gusting 28 5.4 4.0 Light rain showers.
2017-Jan-20 05:20 250 17 gusting 27 5.4 4.0 Light rain showers.
2017-Jan-20 05:16 250 17 5.4 4.0
2017-Jan-20 04:49 260 17 gusting 27 5.4 6.0 Light rain showers.
2017-Jan-20 04:43 270 20 gusting 31 5.4 6.0
2017-Jan-20 04:36 260 20 gusting 31 5.4 6.0
2017-Jan-20 04:21 260 28 gusting 42 5.4 5.0 Light rain showers.
2017-Jan-20 04:12 270 27 gusting 38 5.4 6.0 Light rain showers.
2017-Jan-20 03:12 250 21 gusting 38 5.4 8.0
2017-Jan-20 02:30 280 14 gusting 25 5.4 8.0
2017-Jan-20 02:05 260 14 gusting 29 5.4 7.0 Light rain showers.
2017-Jan-20 01:41 280 14 5.4 8.0
2017-Jan-20 01:19 260 8 4.9 7.0
2017-Jan-20 00:31 240 13 2.3 5.0 Light thunderstorm with rain. Mist.
2017-Jan-19 23:44 260 14 1.7 5.0 Light rain showers. Mist.
2017-Jan-19 23:39 260 11 1.7 6.0 Light rain showers. Mist.
2017-Jan-19 23:37 260 11 2.4 6.0 Light rain showers. Mist.
2017-Jan-19 23:34 260 11 3.8 6.0 Light rain showers.
2017-Jan-19 23:19 260 11 5.4 6.0 Light rain showers.
2017-Jan-19 20:47 010 2 4.3 3.0
2017-Jan-19 18:07 330 5 3.2 4.0 Light rain showers.
2017-Jan-19 15:50 340 5 4.9 4.0 Light rain showers.
2017-Jan-19 12:45 4.9 4.0
2017-Jan-19 12:09 010 4 4.9 4.0
2017-Jan-19 01:13 010 2 5.4 8.0
2017-Jan-18 23:22 330 2 5.4 3.0
2017-Jan-18 22:26 5.4 4.0
2017-Jan-18 20:30 360 6 5.4 4.0